Wetbulb
72.80 74.61 75.92 76.35 76.28 76.83 76.01 75.89 76.16 77.00 77.29 77.17 77.03 76.67 76.79 76.87 76.79 76.67 76.59 76.89 76.83 77.33 76.71 76.60 76.72 76.64 75.76 75.79 76.15 75.94 75.77 76.24 75.94 75.96 76.06 75.70 75.84 75.99 75.92 75.80 76.07 75.23 75.58
73.50 75.18 76.16 76.63 75.97 76.37 76.63 77.12 76.65 76.03 76.87 76.79 77.20 76.92 76.83 76.79 76.84 76.71 76.38 76.84 76.51 76.68 75.70 76.55 76.64 76.22 75.83 75.97 75.90 75.93 76.27 75.59 75.84 75.99 75.92 76.02 76.12 75.94 75.78 76.06 76.17 75.30 75.72
73.32 75.33 75.53 76.56 76.20 75.76 75.70 76.03 76.34 76.37 76.42 76.67 76.55 76.77 76.83 76.83 76.82 76.78 76.84 76.78 76.54 76.39 76.48 76.56 76.55 76.46 76.29 76.25 76.19 75.64 76.19 75.84 75.32 75.54 75.59 75.58 75.49 75.29 74.90 76.14 76.21 75.86 75.74
74.24 75.41 75.52 76.49 76.09 75.30 75.17 75.28 75.73 75.99 75.57 76.63 76.61 76.72 76.69 76.79 76.83 76.72 76.42 76.80 76.81 76.86 76.23 76.76 76.35 76.12 75.35 74.93 74.85 75.37 75.63 75.75 75.49 73.86 74.72 74.96 75.13 75.71 76.05 75.40 75.88 75.80 75.75
74.72 75.34 76.21 76.33 75.88 75.33 75.47 75.67 75.00 75.73 76.23 76.08 76.40 76.63 76.75 76.36 76.23 76.55 76.73 76.65 76.53 76.84 76.62 76.28 75.86 76.25 76.14 75.59 75.26 75.11 75.52 75.75 75.39 74.12 75.27 75.53 75.55 75.86 76.01 75.88 75.77 75.84 75.97
74.64 75.27 75.15 76.48 76.54 76.57 75.96 75.61 75.85 75.19 75.96 75.48 76.37 76.39 76.43 76.15 76.29 76.70 76.96 76.72 76.36 76.23 76.06 75.98 75.65 75.98 75.70 75.70 75.87 75.21 75.69 75.48 74.93 75.08 74.04 73.78 74.34 75.44 75.00 75.00 74.94 74.49 74.53
73.67 73.33 75.99 76.99 76.62 76.56 76.11 76.03 75.80 75.82 75.55 76.13 76.55 76.49 76.01 76.51 76.56 76.47 76.95 76.69 76.37 76.45 76.35 76.04 75.98 75.87 76.31 76.32 75.73 75.26 75.37 74.95 75.07 74.40 75.06 73.45 73.91 74.77 74.47 75.80 75.71 75.04 74.68
73.36 75.46 76.05 76.64 76.49 76.11 76.18 75.96 75.83 75.69 75.84 76.29 76.19 76.38 76.36 77.36 76.67 77.50 76.54 76.68 76.54 76.04 75.96 76.18 76.21 76.34 76.41 76.18 75.04 74.79 74.75 74.31 74.43 74.15 75.48 73.45 74.47 74.22 74.23 74.52 74.83 74.58 74.25
75.36 75.36 76.18 75.84 76.37 76.30 75.99 76.08 75.82 75.68 75.98 76.12 75.71 76.59 76.47 76.41 76.36 76.98 77.15 76.60 76.26 75.92 76.00 76.01 76.15 75.82 76.01 75.63 74.59 74.69 74.82 74.82 75.13 74.50 74.54 73.69 74.72 73.90 73.98 74.15 73.83 73.65 73.73
74.09 75.16 75.87 76.34 76.16 75.97 76.04 75.81 76.09 75.87 76.14 75.97 76.17 76.35 76.26 76.40 76.42 76.19 76.23 76.97 76.40 76.00 76.03 75.73 75.62 75.57 75.84 75.39 74.40 74.72 74.92 73.34 74.08 72.72 75.13 74.87 74.75 73.92 74.37 73.74 73.60 73.60 74.26
73.66 74.56 75.60 75.56 75.82 76.19 76.23 75.87 76.19 76.01 76.07 76.16 76.19 75.84 75.97 76.61 76.31 75.48 76.19 76.89 76.32 76.12 75.51 75.57 75.70 75.67 75.67 75.48 74.97 75.29 73.63 72.29 72.16 73.94 75.33 74.88 75.09 73.27 73.46 74.31 73.12 73.07 72.94
72.32 73.22 74.82 75.28 75.00 75.50 75.19 76.36 76.38 76.15 76.11 76.17 75.79 76.17 75.99 76.09 76.88 76.23 76.23 75.86 74.52 75.26 75.73 75.40 74.67 73.75 73.65 75.91 76.44 75.59 75.29 72.99 72.70 73.46 74.09 74.09 75.06 73.27 73.13 73.07 72.81 72.78 72.40
72.45 73.24 74.35 74.73 75.50 75.23 75.59 75.43 75.06 75.15 75.39 75.40 75.66 75.43 76.26 76.22 76.17 76.65 75.84 73.69 73.62 74.33 73.97 73.70 74.86 75.57 73.77 75.08 75.40 75.30 74.74 74.42 74.30 73.31 73.37 73.49 74.72 73.89 73.24 72.70 72.58 72.57 72.75
71.68 73.21 74.02 74.54 75.03 75.69 75.74 74.84 74.12 73.87 74.13 74.15 75.11 75.76 75.59 74.52 74.82 75.07 74.00 73.47 72.92 73.60 74.34 75.35 75.57 75.53 75.79 75.82 75.60 74.80 74.59 74.16 73.97 73.83 73.19 73.06 74.26 74.18 73.08 73.50 73.89 73.13 73.10
70.97 72.53 73.47 74.62 75.28 75.26 74.82 74.37 74.11 74.07 74.12 74.42 75.09 75.31 74.90 74.00 73.74 73.72 73.38 73.43 73.51 73.40 74.58 75.08 74.98 75.10 75.09 74.70 75.52 75.05 75.53 75.11 73.72 74.23 73.68 72.33 73.95 74.71 74.84 73.49 73.32 73.46 73.70
71.41 72.17 73.65 74.02 75.00 75.11 74.76 75.38 74.90 74.84 74.57 75.18 75.49 74.93 75.01 74.27 74.07 73.34 72.11 73.04 72.53 73.95 74.54 75.53 75.83 75.35 73.69 74.42 74.74 75.23 75.38 75.25 74.09 74.32 74.86 75.06 73.45 73.56 73.70 74.45 74.57 74.75 74.87
71.99 72.89 73.14 73.66 74.46 74.37 74.62 75.03 75.17 75.03 74.70 74.73 75.20 74.93 74.46 74.82 73.91 74.20 73.61 73.76 74.46 75.79 76.04 76.37 76.34 74.83 74.11 74.42 74.38 75.30 75.69 75.29 74.40 73.93 75.20 75.33 75.27 73.18 74.02 74.64 74.73 74.94 75.11
72.39 72.97 73.74 73.41 73.89 73.43 74.55 75.04 75.14 75.72 75.08 74.26 74.39 74.94 73.90 74.16 74.15 73.93 74.02 73.94 75.00 76.05 76.50 75.76 74.89 73.64 74.04 74.28 74.52 74.76 75.40 75.10 75.10 74.53 75.11 75.21 75.64 75.11 74.47 73.43 73.77 74.53 75.23
72.93 73.49 73.55 74.37 74.21 74.26 75.01 74.79 74.68 74.88 75.15 75.38 75.04 74.97 75.26 74.71 75.61 75.14 74.49 74.94 75.84 75.33 75.88 75.36 75.02 75.39 74.80 74.08 74.22 74.94 75.06 74.39 74.77 74.56 75.08 75.58 75.54 75.14 75.79 75.71 72.99 73.44 74.37
72.95 73.70 74.13 74.38 75.30 75.36 74.64 74.73 74.44 74.58 75.86 76.06 75.65 75.38 75.31 74.84 76.08 75.68 75.49 76.07 76.57 75.06 75.32 75.75 75.35 75.26 75.11 74.11 72.79 73.94 75.21 75.95 76.20 75.54 75.05 75.51 76.13 75.42 75.72 75.56 76.00 76.47 73.88
72.85 73.19 73.66 74.19 75.29 74.47 73.59 73.03 73.05 72.71 74.43 75.11 76.21 75.70 75.69 76.29 75.93 75.66 76.32 76.40 76.00 75.25 75.65 76.23 75.87 74.82 73.63 74.54 73.98 74.67 74.47 74.78 75.15 75.04 75.27 75.06 75.38 76.14 76.20 76.16 76.38 76.47 76.62
72.35 73.30 73.97 74.59 75.18 74.83 74.35 74.18 73.96 74.10 74.06 76.37 76.45 76.42 76.32 76.07 75.75 75.68 76.72 76.27 76.62 75.59 76.59 76.34 75.29 73.85 74.29 74.70 72.69 73.13 69.88 71.10 73.98 74.18 74.64 74.63 75.35 75.99 75.89 75.68 75.86 76.65 77.02
71.91 72.78 73.59 74.66 74.95 74.89 75.27 74.59 74.34 74.54 74.82 74.79 75.20 75.40 76.12 75.87 74.92 75.72 75.93 76.49 76.93 76.74 75.03 75.90 75.58 74.90 73.01 74.35 74.74 72.65 70.21 67.90 71.67 73.16 73.35 74.22 74.86 75.79 75.77 75.87 75.23 75.61 76.91
71.92 73.21 73.85 74.65 75.07 74.86 75.33 74.72 74.82 73.30 74.48 76.64 77.24 75.36 75.50 76.04 75.35 75.37 75.90 76.09 76.57 76.14 76.15 76.62 76.55 75.97 76.04 73.56 75.10 74.11 74.44 73.61 71.04 68.99 72.81 73.30 73.92 73.56 74.11 74.45 74.57 75.26 76.31
72.26 72.43 73.20 74.26 75.03 74.90 75.15 75.63 74.36 73.82 74.32 75.78 74.76 75.87 75.63 77.32 76.45 75.70 75.87 76.11 75.98 75.55 76.42 77.20 76.57 76.89 76.02 74.70 74.12 74.97 74.73 74.45 74.03 71.64 69.25 71.14 73.49 73.93 75.38 75.64 75.25 75.66 76.73
72.23 72.09 72.72 73.34 74.04 74.99 74.56 74.99 75.09 74.74 74.02 73.16 73.85 74.34 76.59 75.65 77.20 76.50 76.46 76.01 76.49 76.09 75.68 76.34 77.41 76.42 76.31 75.89 75.63 75.16 73.54 72.48 72.32 72.20 70.91 72.29 71.56 73.48 75.42 76.80 77.02 76.94 77.38
MSLP
1017.13 1017.17 1017.52 1017.48 1017.55 1017.66 1017.82 1017.94 1018.04 1018.00 1017.99 1017.99 1017.96 1018.03 1018.08 1018.16 1018.22 1018.26 1018.22 1018.29 1018.31 1018.35 1018.44 1018.49 1018.65 1018.78 1018.80 1018.86 1018.89 1019.14 1019.23 1019.16 1019.26 1019.19 1019.17 1019.28 1019.16 1019.24 1019.31 1019.22 1018.99 1018.89 1019.60
1016.64 1017.08 1017.44 1017.63 1017.71 1017.94 1018.11 1018.17 1018.18 1018.22 1018.28 1018.33 1018.36 1018.38 1018.36 1018.42 1018.51 1018.64 1018.64 1018.63 1018.71 1018.77 1018.80 1018.80 1018.93 1019.12 1019.27 1019.30 1019.47 1019.52 1019.49 1019.56 1019.61 1019.70 1019.59 1019.57 1019.63 1019.62 1019.63 1019.46 1019.31 1019.68 1019.82
1016.58 1017.03 1017.41 1017.72 1017.93 1018.15 1018.25 1018.36 1018.41 1018.46 1018.52 1018.61 1018.62 1018.61 1018.61 1018.63 1018.72 1018.77 1018.85 1018.90 1019.01 1019.05 1019.08 1019.10 1019.24 1019.40 1019.51 1019.64 1019.62 1019.69 1019.91 1019.91 1020.00 1020.20 1019.83 1019.48 1019.70 1020.00 1019.93 1019.83 1019.88 1020.15 1020.23
1016.69 1017.17 1017.44 1017.97 1018.12 1018.31 1018.44 1018.51 1018.58 1018.66 1018.70 1018.80 1018.80 1018.74 1018.80 1018.85 1018.94 1018.99 1019.07 1019.27 1019.33 1019.37 1019.54 1019.46 1019.59 1019.68 1019.89 1019.99 1020.06 1020.20 1020.30 1020.42 1020.46 1020.35 1019.98 1019.61 1019.78 1020.38 1020.22 1020.27 1020.41 1020.50 1020.53
1016.99 1017.29 1017.68 1018.05 1018.21 1018.43 1018.61 1018.64 1018.73 1018.85 1018.94 1019.02 1019.04 1019.15 1019.15 1019.24 1019.03 1019.13 1019.40 1019.70 1019.75 1019.77 1019.82 1019.95 1020.09 1020.19 1020.19 1020.34 1020.40 1020.51 1020.66 1020.70 1020.71 1020.44 1020.33 1020.36 1020.29 1020.70 1020.68 1020.62 1020.70 1020.84 1020.80
1017.07 1017.41 1018.03 1018.23 1018.34 1018.56 1018.93 1018.91 1018.93 1019.02 1019.09 1019.17 1019.32 1019.52 1019.60 1019.36 1019.39 1019.56 1019.82 1019.97 1020.12 1020.17 1020.17 1020.19 1020.28 1020.41 1020.47 1020.56 1020.75 1020.86 1020.87 1021.03 1020.91 1020.77 1020.83 1021.13 1020.92 1021.15 1021.13 1021.10 1021.20 1021.28 1021.25
1017.31 1017.69 1017.97 1018.32 1018.55 1018.72 1018.93 1019.10 1019.19 1019.30 1019.33 1019.47 1019.58 1019.55 1019.74 1019.74 1019.89 1019.80 1020.03 1020.21 1020.23 1020.50 1020.46 1020.47 1020.50 1020.68 1020.77 1020.94 1021.01 1021.05 1021.23 1021.39 1021.12 1021.19 1021.26 1021.34 1021.46 1021.60 1021.56 1021.56 1021.64 1021.69 1021.62
1017.54 1017.78 1018.07 1018.52 1018.77 1019.00 1019.17 1019.26 1019.38 1019.45 1019.59 1019.67 1019.68 1019.78 1019.96 1020.09 1020.18 1020.21 1020.43 1020.58 1020.63 1020.77 1020.80 1020.85 1020.84 1021.01 1021.16 1021.29 1021.40 1021.53 1021.64 1021.61 1021.49 1021.66 1021.66 1021.63 1022.04 1022.00 1021.97 1022.00 1021.93 1021.96 1021.99
1017.93 1018.07 1018.27 1018.38 1018.91 1019.19 1019.34 1019.46 1019.54 1019.60 1019.74 1019.82 1019.94 1019.98 1020.22 1020.34 1020.57 1020.63 1020.78 1020.87 1020.90 1020.99 1021.04 1021.20 1021.29 1021.38 1021.51 1021.65 1021.78 1021.89 1022.03 1022.09 1021.87 1021.93 1021.80 1021.91 1022.51 1022.43 1022.42 1022.37 1022.35 1022.35 1022.38
1018.28 1018.39 1018.69 1018.83 1019.07 1019.25 1019.45 1019.72 1019.78 1019.89 1019.93 1020.06 1020.35 1020.41 1020.45 1020.71 1020.97 1021.07 1021.28 1021.25 1021.27 1021.31 1021.39 1021.50 1021.59 1021.68 1021.78 1021.94 1022.03 1022.13 1022.23 1022.32 1022.06 1022.14 1022.14 1022.42 1022.75 1022.71 1022.67 1022.68 1022.70 1022.72 1022.71
1018.82 1018.90 1019.06 1019.04 1019.29 1019.60 1019.78 1019.96 1019.98 1020.14 1020.19 1020.35 1020.63 1020.94 1020.94 1021.04 1021.17 1021.38 1021.67 1021.51 1021.64 1021.73 1021.73 1021.74 1021.85 1021.98 1022.02 1022.13 1022.21 1022.25 1022.34 1022.05 1022.14 1022.31 1022.36 1022.94 1022.87 1022.85 1022.93 1022.99 1023.05 1023.05 1023.00
1018.95 1019.18 1019.31 1019.36 1019.46 1019.73 1019.84 1020.27 1020.32 1020.38 1020.39 1020.62 1020.85 1021.07 1021.12 1021.28 1021.47 1021.44 1021.77 1022.01 1022.16 1022.05 1022.01 1022.10 1022.28 1022.32 1022.18 1021.97 1022.02 1022.37 1022.02 1022.26 1022.37 1022.50 1022.50 1023.10 1023.02 1023.04 1023.15 1023.24 1023.25 1023.16 1023.11
1019.12 1019.43 1019.61 1019.74 1019.94 1020.04 1020.33 1020.42 1020.36 1020.49 1020.69 1021.00 1021.23 1021.29 1021.48 1021.63 1021.86 1021.98 1022.18 1022.26 1022.35 1022.43 1022.10 1022.18 1022.18 1022.11 1022.17 1022.15 1022.11 1022.12 1022.34 1022.38 1022.29 1022.45 1022.86 1023.28 1023.23 1023.20 1023.24 1023.28 1023.24 1023.19 1023.17
1019.15 1019.50 1019.71 1019.86 1020.19 1020.40 1020.57 1020.52 1020.58 1020.67 1020.84 1021.00 1021.35 1021.63 1021.68 1021.69 1022.03 1022.25 1022.37 1022.55 1022.53 1022.49 1022.48 1022.41 1022.09 1022.19 1022.08 1022.12 1022.11 1022.20 1022.28 1022.31 1022.37 1022.51 1022.86 1023.33 1023.35 1023.31 1023.28 1023.27 1023.23 1023.19 1023.12
1018.97 1019.44 1019.83 1020.07 1020.37 1020.50 1020.56 1020.61 1020.81 1020.97 1020.96 1021.12 1021.36 1021.64 1021.73 1021.86 1022.22 1022.37 1022.69 1022.59 1022.65 1022.59 1022.45 1022.34 1022.33 1022.16 1022.00 1021.92 1022.03 1022.24 1022.28 1022.44 1022.55 1022.55 1022.69 1023.32 1023.41 1023.40 1023.30 1023.23 1023.19 1023.10 1023.01
1018.89 1019.34 1019.84 1020.20 1020.41 1020.56 1020.74 1020.85 1020.96 1021.16 1021.33 1021.40 1021.50 1021.64 1021.93 1021.96 1022.23 1022.37 1022.59 1022.54 1022.67 1022.64 1022.55 1022.47 1022.31 1022.10 1021.92 1021.75 1022.01 1022.08 1022.15 1022.25 1022.49 1022.61 1022.55 1022.72 1023.27 1023.23 1023.25 1023.19 1023.11 1023.00 1022.86
1018.84 1019.33 1019.79 1020.16 1020.48 1020.70 1020.87 1020.99 1021.02 1021.14 1021.25 1021.41 1021.66 1021.97 1022.14 1022.18 1022.43 1022.54 1022.56 1022.62 1022.69 1022.74 1022.64 1022.52 1022.19 1022.03 1021.76 1021.74 1021.92 1021.98 1022.01 1022.16 1022.21 1022.43 1022.45 1022.51 1022.61 1023.06 1023.04 1023.00 1022.92 1022.81 1022.67
1018.86 1019.38 1019.80 1019.77 1020.33 1020.67 1020.95 1021.11 1021.16 1021.26 1021.34 1021.53 1021.68 1021.94 1022.20 1022.34 1022.51 1022.55 1022.41 1022.61 1022.78 1022.69 1022.44 1022.23 1021.98 1021.94 1022.00 1021.98 1021.95 1021.89 1021.83 1021.97 1022.07 1022.22 1022.24 1022.34 1022.45 1022.39 1022.64 1022.78 1022.70 1022.63 1022.49
1018.91 1019.41 1019.75 1020.05 1020.30 1020.70 1021.08 1021.10 1021.29 1021.45 1021.46 1021.66 1021.87 1022.01 1022.23 1022.42 1022.53 1022.49 1022.48 1022.62 1022.75 1022.52 1022.36 1022.07 1022.12 1022.11 1022.10 1022.03 1021.92 1021.82 1021.66 1021.66 1021.76 1021.72 1022.05 1022.19 1022.24 1022.29 1022.14 1022.29 1022.48 1022.45 1022.31
1018.87 1019.43 1019.71 1019.97 1020.32 1020.63 1021.02 1021.32 1021.36 1021.42 1021.54 1021.77 1021.78 1021.95 1022.31 1022.38 1022.47 1022.58 1022.60 1022.59 1022.54 1022.34 1022.32 1022.17 1022.20 1022.18 1022.27 1022.23 1021.84 1021.58 1021.62 1021.46 1021.57 1021.67 1021.70 1021.79 1021.96 1022.15 1021.98 1022.05 1021.89 1021.64 1021.98
1018.63 1019.25 1019.64 1019.90 1020.23 1020.68 1021.03 1021.14 1021.42 1021.40 1021.61 1021.69 1021.75 1022.02 1022.20 1022.24 1022.47 1022.60 1022.51 1022.65 1022.56 1022.43 1022.50 1022.38 1022.39 1022.35 1022.14 1022.31 1021.88 1021.47 1021.49 1021.50 1021.42 1021.39 1021.43 1021.48 1021.67 1021.74 1021.75 1021.60 1021.69 1021.55 1021.29
1018.16 1018.90 1019.42 1019.74 1020.15 1020.39 1020.74 1020.84 1021.04 1021.41 1021.95 1021.57 1021.86 1021.83 1022.02 1022.21 1022.43 1022.50 1022.56 1022.52 1022.57 1022.49 1022.57 1022.52 1022.59 1022.34 1022.34 1022.46 1022.05 1021.81 1021.26 1021.27 1021.14 1021.23 1021.29 1021.35 1021.43 1021.44 1021.36 1021.40 1021.48 1021.53 1021.30
1017.75 1018.35 1019.12 1019.52 1020.06 1020.27 1020.53 1020.88 1021.23 1021.51 1021.74 1021.91 1021.92 1021.94 1021.98 1022.27 1022.41 1022.47 1022.55 1022.62 1022.66 1022.43 1022.49 1022.70 1022.73 1022.67 1022.35 1022.58 1022.60 1022.17 1021.49 1021.33 1021.42 1021.17 1021.22 1021.29 1021.43 1021.26 1021.23 1021.27 1021.19 1021.15 1021.01
1017.26 1018.07 1018.93 1019.47 1019.91 1020.33 1020.54 1020.67 1020.86 1020.92 1021.35 1021.63 1021.69 1021.81 1021.82 1022.15 1022.28 1022.47 1022.51 1022.59 1022.71 1022.72 1022.80 1022.82 1022.71 1022.84 1022.64 1022.41 1022.57 1022.56 1022.55 1022.28 1021.62 1020.97 1021.08 1021.19 1021.30 1021.15 1021.26 1020.94 1020.79 1020.76 1020.83
1017.20 1017.74 1018.55 1019.29 1019.83 1020.16 1020.50 1020.57 1020.62 1020.97 1021.27 1021.59 1021.72 1021.81 1021.86 1022.11 1022.25 1022.41 1022.57 1022.64 1022.74 1022.75 1022.99 1022.95 1023.03 1022.93 1022.83 1022.66 1022.51 1022.54 1022.57 1022.40 1022.30 1021.76 1021.08 1021.04 1021.05 1021.30 1021.09 1020.87 1020.74 1020.65 1020.60
1017.16 1017.69 1018.31 1018.98 1019.57 1020.08 1020.47 1020.69 1020.76 1020.75 1021.11 1021.22 1021.49 1021.59 1021.86 1021.90 1022.04 1022.21 1022.43 1022.68 1022.73 1022.78 1022.91 1022.90 1023.01 1023.10 1022.96 1022.99 1022.86 1022.66 1022.52 1022.28 1022.06 1021.82 1021.46 1021.39 1021.29 1021.19 1021.11 1020.75 1020.65 1020.55 1020.49
Wind_Speed
7 7 7 11 10 8 9 9 10 9 12 10 12 13 13 12 12 13 13 13 15 15 16 16 15 15 16 15 15 14 14 13 14 14 15 14 15 15 14 13 12 14 13
12 9 9 10 10 10 9 10 8 9 11 10 11 12 13 12 12 13 13 13 16 15 16 16 17 17 16 15 15 14 15 15 15 16 14 16 14 14 14 15 15 13 13
12 10 10 10 11 9 8 9 9 8 9 10 10 10 11 12 12 13 13 14 15 15 15 16 17 17 16 15 15 14 16 16 15 14 11 10 13 14 15 15 16 15 14
12 10 10 9 10 9 8 8 8 8 7 9 9 8 9 10 12 13 14 15 14 14 15 15 16 17 17 15 15 13 14 14 13 10 8 10 12 13 15 14 15 13 13
12 10 11 10 10 9 9 8 8 8 9 8 9 9 9 9 12 14 15 15 15 13 14 13 12 12 12 12 12 13 12 12 11 10 10 9 9 12 15 12 14 14 14
12 10 11 9 9 8 9 8 8 7 7 8 11 9 9 11 13 14 16 14 13 14 12 11 10 10 11 11 11 11 12 11 8 9 9 10 10 12 14 14 12 12 13
11 10 10 10 9 9 8 9 8 7 9 10 10 10 11 13 14 14 15 15 13 13 13 11 10 11 11 12 11 11 11 9 8 8 8 9 10 11 11 14 14 11 14
11 9 9 9 9 9 8 10 10 10 10 10 8 10 10 13 13 14 14 14 13 13 12 14 15 13 11 10 9 10 9 7 7 8 8 7 9 10 10 11 12 13 12
9 8 8 8 9 10 9 10 11 11 10 10 9 10 10 12 13 13 13 14 12 12 13 13 13 10 9 9 8 8 8 7 6 5 6 6 7 8 9 10 10 10 10
8 8 7 6 7 7 8 9 11 10 10 9 11 11 11 12 12 14 11 12 12 12 12 10 10 9 9 8 8 8 7 4 7 5 4 7 6 7 7 8 9 8 8
7 7 6 7 7 7 7 7 10 12 10 11 12 11 10 8 10 11 11 13 11 10 9 9 9 8 8 8 7 7 3 4 4 4 3 6 5 7 7 8 7 7 7
8 8 6 7 7 6 6 7 7 8 7 7 7 8 7 8 8 9 12 12 9 8 9 8 8 6 2 3 4 5 2 4 3 3 4 6 6 6 6 5 5 6 6
8 6 6 6 6 6 5 5 4 4 5 5 7 6 7 6 6 6 5 4 4 5 3 3 2 1 1 0 2 2 3 2 2 2 5 3 5 3 4 3 4 5 5
9 7 7 7 6 5 4 4 5 5 5 5 5 6 5 4 5 5 4 4 4 3 2 2 2 3 3 1 2 4 4 3 2 2 4 2 4 4 3 3 3 4 5
10 8 7 7 6 5 6 5 4 4 4 5 4 4 4 5 5 4 4 3 3 3 2 2 3 3 3 2 3 3 2 2 2 2 1 1 4 5 4 5 5 5 6
9 9 8 7 6 6 5 5 4 4 4 3 3 4 5 4 4 4 3 4 4 2 2 2 3 2 4 5 4 3 2 2 2 0 1 1 2 4 4 6 7 7 7
9 9 9 8 7 7 6 5 3 3 4 3 3 4 4 3 4 4 4 4 4 2 2 2 2 3 4 3 4 2 1 0 1 1 1 1 2 4 3 5 6 7 8
10 9 10 8 9 8 6 5 3 2 3 4 4 3 3 2 2 2 3 3 3 2 2 2 3 4 3 3 2 1 2 3 2 3 2 1 0 2 3 4 5 6 8
10 9 10 10 9 9 6 4 4 3 3 3 3 3 3 3 3 3 3 3 3 3 2 2 4 3 3 3 2 2 2 3 3 2 3 2 1 3 2 2 7 7 8
10 10 9 8 8 7 5 4 3 3 2 3 3 3 5 3 3 3 3 3 2 3 3 3 4 3 3 4 5 2 2 2 2 2 3 2 1 3 3 4 4 2 6
11 11 11 9 8 8 5 5 5 5 3 3 2 5 5 4 4 4 2 3 3 3 4 4 2 3 3 4 3 1 1 1 2 3 3 3 2 2 2 3 4 4 3
13 12 11 10 9 10 7 5 4 5 2 2 3 4 4 4 3 4 2 2 2 4 4 4 4 2 2 4 3 1 3 3 2 2 2 3 3 2 3 3 5 5 5
15 14 12 11 10 8 7 6 5 5 4 4 4 3 3 4 4 3 2 0 2 1 3 3 3 3 3 3 4 3 1 3 3 1 2 2 3 2 3 3 4 4 4
16 13 12 12 10 8 9 8 10 6 4 3 4 4 4 5 4 4 4 3 3 1 2 2 2 3 2 4 2 3 3 3 2 1 1 2 3 3 4 3 3 3 5
14 14 13 12 11 9 9 8 7 6 4 3 3 5 6 6 5 5 4 4 4 2 2 2 3 3 3 4 4 1 2 2 2 2 2 4 3 4 4 3 3 3 4
13 13 13 12 12 10 9 8 8 9 6 5 5 4 4 4 4 5 5 4 4 4 4 3 2 2 3 3 2 3 4 3 4 2 2 2 3 4 4 4 4 4 4
Wind_Direction
157 146 156 141 129 106 108 96 90 82 85 90 98 92 92 92 90 89 92 95 91 94 98 96 99 102 102 100 99 93 90 86 79 79 82 84 80 81 81 84 117 95 96
143 143 148 134 122 106 96 92 99 101 91 93 89 94 103 102 102 97 99 100 99 100 104 103 93 90 91 91 97 90 77 78 74 71 81 82 83 84 81 77 70 87 89
140 137 145 131 111 107 101 96 95 97 106 103 98 97 104 108 108 105 109 103 102 103 97 96 97 96 93 89 82 79 79 75 74 72 76 88 82 81 80 72 78 79 82
130 130 132 118 115 117 114 110 108 100 111 111 99 106 107 115 117 110 109 100 104 101 100 101 99 97 89 85 87 86 76 79 77 70 71 68 78 76 84 81 80 82 87
129 132 122 126 121 122 123 119 114 106 115 111 112 110 108 113 116 117 112 109 103 99 95 94 94 97 87 85 91 89 84 82 79 76 74 60 76 70 74 76 87 76 66
136 129 126 130 129 121 115 123 121 118 117 130 117 112 108 102 103 107 110 108 104 101 95 91 93 90 86 93 92 91 88 81 80 72 70 67 62 70 76 75 77 78 74
132 133 135 136 119 115 107 108 110 113 97 97 112 126 121 108 106 108 109 109 106 97 85 76 95 102 93 96 89 90 88 83 84 76 79 73 76 74 75 68 72 80 77
132 135 131 126 117 108 107 98 99 97 101 99 112 104 109 106 105 106 106 106 102 94 87 79 86 94 92 95 90 97 94 79 84 80 75 69 66 77 75 67 66 67 67
128 127 128 127 108 99 96 97 100 100 107 111 113 106 110 109 100 95 101 106 109 103 99 86 82 92 102 94 101 97 97 85 87 76 85 79 78 77 73 67 67 67 67
137 129 116 107 103 103 106 103 103 100 101 100 89 96 100 106 91 99 107 108 101 102 101 90 87 87 121 111 105 110 105 103 74 80 79 78 91 80 77 77 67 64 55
142 130 129 124 114 108 105 97 98 103 96 88 90 79 90 98 99 107 102 98 98 104 102 88 90 85 107 108 117 115 134 71 86 68 65 34 98 74 62 56 57 52 43
153 142 131 130 114 102 103 99 102 104 93 91 90 90 101 104 87 89 93 80 79 108 97 83 69 76 78 106 113 143 77 88 83 78 71 10 56 59 57 52 45 39 28
161 152 144 133 124 115 106 107 117 111 113 101 91 97 98 105 96 98 99 86 88 78 86 83 78 58 103 50 54 66 95 105 90 75 75 2 349 49 46 37 25 15 3
166 161 147 141 135 119 121 122 111 116 118 120 102 107 114 115 102 94 95 84 96 97 67 22 33 349 327 28 75 73 79 51 60 55 87 327 329 349 0 0 353 344 335
166 163 158 153 144 131 132 126 124 120 130 122 126 111 120 117 108 111 90 78 80 99 72 49 16 9 26 109 123 119 99 67 70 34 18 324 301 319 327 336 327 320 325
167 164 156 159 149 148 140 141 132 132 129 133 125 124 122 112 115 117 101 95 92 67 55 22 24 42 75 87 114 134 126 125 136 129 57 103 275 291 312 320 317 320 319
171 162 160 157 155 162 160 157 148 147 146 132 132 136 129 123 104 108 109 109 106 97 59 39 79 105 83 79 83 111 158 210 173 215 236 345 124 199 286 295 300 308 308
165 171 163 164 165 167 167 166 153 141 140 134 150 147 163 139 137 117 117 111 117 125 94 75 47 76 41 33 43 360 258 261 256 243 245 248 262 329 185 241 285 293 296
173 177 176 170 169 169 166 161 159 141 161 161 165 176 199 188 126 118 121 117 151 127 91 83 88 58 29 9 324 293 272 261 260 272 274 259 229 265 305 188 266 283 287
180 184 187 189 168 178 161 155 145 149 125 139 159 161 167 184 167 165 132 125 178 124 116 73 56 69 29 355 321 345 314 262 248 266 292 270 248 242 268 286 297 300 259
186 189 190 198 180 166 167 160 162 160 160 141 161 160 169 156 145 160 150 144 161 125 91 79 65 46 60 14 293 93 57 342 272 266 270 277 292 260 293 288 294 313 310
188 193 192 196 188 176 176 171 166 156 157 151 169 196 179 183 178 179 168 132 105 124 106 69 34 40 43 27 3 324 43 125 34 345 305 291 299 297 290 298 315 307 297
196 193 192 189 185 183 167 144 126 127 132 162 176 183 179 193 186 184 163 188 114 134 97 74 59 41 51 71 32 349 127 44 334 11 14 11 353 332 326 312 308 329 303
201 195 192 188 189 186 175 169 170 173 164 192 177 166 174 194 172 182 190 175 151 109 113 134 110 62 9 59 113 50 37 23 3 357 83 22 345 13 7 318 331 350 346
196 194 195 192 191 191 191 198 177 174 174 154 163 174 185 180 179 182 177 178 170 187 157 173 158 114 90 51 57 101 73 84 70 9 33 25 92 39 20 350 350 2 12
196 196 195 194 196 191 198 199 198 186 174 180 174 193 181 174 168 187 181 201 197 187 192 170 149 153 96 90 59 59 43 30 45 36 36 30 5 33 35 39 41 57 48